Theta_e
299 299 300 300 299 300 300 300 300 300 301 301 301 301 302 302 302 302 302 302 302 302 303 303 304 304 304 304 304 305 305 305 306 307 309 312 315 315 315 315 315 315 315 315 316 316 317 318 317 317 317 317 317 317 318 318 318 318 317 317 317 316 316 314 313 312 312 312 311
299 299 299 298 298 298 299 299 299 299 300 301 301 301 301 302 302 302 302 302 303 303 303 303 304 304 304 304 305 305 305 305 306 307 308 311 313 314 314 313 313 313 313 314 314 314 315 315 316 316 316 316 316 316 316 317 317 317 316 316 316 316 316 315 314 313 313 312 311
300 300 300 299 299 298 298 298 298 299 299 300 300 301 301 301 302 302 302 303 303 303 303 303 303 304 304 305 305 305 306 306 306 306 307 308 310 311 312 312 312 311 312 312 313 313 313 313 314 314 315 316 316 316 316 316 316 316 315 315 316 316 315 314 315 314 313 313 312
301 301 300 299 298 298 298 298 298 298 299 299 300 300 301 301 301 302 302 302 303 303 303 303 304 304 305 305 305 306 306 305 305 305 305 306 307 308 309 310 310 310 310 311 311 311 312 312 312 313 313 314 314 315 315 316 316 315 315 315 315 315 314 313 313 313 313 312 311
300 300 299 299 298 298 298 298 298 298 298 299 299 300 300 300 301 301 301 301 301 302 302 303 304 304 305 304 304 304 304 304 303 304 305 305 306 307 308 309 309 309 309 310 310 310 310 311 311 312 312 312 313 313 314 315 315 315 315 315 315 314 313 313 313 312 312 311 311
298 298 299 298 299 298 298 298 298 299 299 299 299 299 299 299 299 299 299 300 300 301 301 302 302 302 303 303 303 303 303 303 303 304 305 305 306 306 307 307 308 308 309 309 309 309 309 309 310 310 310 311 312 312 313 314 313 313 313 313 313 313 313 313 312 312 312 311 310
296 296 296 296 297 297 297 298 299 299 299 299 298 298 298 298 299 299 299 299 300 300 301 301 301 302 302 303 303 303 303 303 303 304 304 305 305 306 306 306 307 307 308 308 309 308 309 309 309 309 308 308 309 310 311 312 312 312 312 312 312 312 312 312 312 312 311 311 310
295 295 295 295 295 296 297 297 298 298 298 298 298 298 298 298 299 299 299 299 299 299 300 300 302 302 302 303 303 303 303 303 303 304 304 305 305 305 306 306 306 306 306 307 308 308 308 308 308 308 308 307 308 309 309 310 310 311 311 310 310 310 311 312 311 311 311 310 309
295 295 295 295 295 296 296 297 297 297 297 297 297 298 298 298 298 298 298 298 298 299 300 300 301 302 302 302 302 302 303 303 303 303 304 304 304 304 304 304 304 304 305 306 306 307 307 307 307 307 307 307 307 307 307 308 309 309 309 309 308 308 309 310 310 310 309 309 307
294 294 294 295 295 295 296 296 296 296 296 296 297 297 297 296 297 297 298 298 298 299 299 300 300 301 301 301 301 302 302 302 303 303 304 304 304 304 303 303 303 302 303 304 306 306 306 306 305 305 305 305 305 305 306 307 308 308 308 307 306 306 307 307 307 307 307 306 303
293 294 294 294 295 295 295 295 295 295 296 296 296 296 296 296 296 297 297 297 297 298 298 299 299 299 299 299 300 300 301 301 302 302 303 303 303 303 303 302 302 302 302 303 304 305 305 305 304 304 304 304 304 304 305 305 307 307 307 305 305 305 305 304 304 305 304 302 300
293 294 294 294 295 295 295 295 295 295 295 295 295 296 296 297 297 297 297 297 296 297 297 297 298 298 298 299 299 299 300 300 301 301 302 302 303 303 302 302 302 301 301 302 303 304 304 304 303 303 303 303 303 303 303 304 305 306 305 304 304 304 303 302 303 303 302 300 298
293 294 294 294 294 294 294 294 294 294 294 295 295 296 296 296 297 296 296 296 296 296 296 296 297 297 297 298 298 298 299 299 300 300 301 301 302 302 302 302 301 301 301 301 302 303 304 303 303 302 302 302 302 302 302 303 304 304 304 303 303 302 301 301 301 301 300 299 297
293 293 293 294 294 294 294 294 294 294 294 295 295 295 296 296 296 296 296 296 296 296 296 296 296 296 296 297 297 297 298 298 299 299 300 300 301 302 302 302 302 301 301 301 302 303 303 303 303 302 302 302 302 302 302 302 303 303 303 302 302 301 300 300 300 299 299 298 297
293 293 293 293 293 293 293 293 294 294 294 294 295 295 296 296 296 296 296 296 296 296 295 295 295 295 296 296 296 297 297 298 298 298 299 299 300 301 302 303 302 301 301 301 302 303 303 303 303 302 301 301 301 301 301 301 302 302 302 301 301 300 299 299 299 298 298 297 296
292 293 293 293 293 293 293 293 294 294 294 294 295 295 296 296 297 297 296 296 296 295 295 295 295 295 295 295 296 296 296 296 297 297 297 298 299 300 301 302 302 302 301 301 302 302 303 303 303 302 301 301 301 301 301 301 301 301 301 301 300 300 299 298 298 298 297 296 296
292 292 292 292 292 293 293 293 293 294 294 294 294 295 295 296 296 296 296 295 296 295 295 295 295 295 295 295 295 295 295 296 296 296 297 297 298 299 300 301 301 302 301 301 302 302 302 303 303 302 301 301 300 300 300 300 300 300 300 300 299 299 299 298 297 297 297 296 295
292 292 292 292 292 292 293 293 293 293 294 294 294 295 295 296 296 296 296 296 296 295 295 295 295 295 295 295 295 295 295 295 295 296 296 297 297 298 299 300 301 302 302 302 302 302 302 303 302 302 301 301 300 300 300 300 299 299 299 298 298 298 298 297 297 297 296 296 295
291 292 292 292 292 292 292 293 293 293 294 294 295 295 295 296 296 296 296 296 296 295 295 295 295 295 295 295 295 295 295 295 295 296 296 296 297 297 298 299 300 301 302 302 302 302 302 302 302 302 301 300 300 300 299 299 299 298 298 298 297 297 297 297 297 296 296 295 295
291 291 292 292 292 292 293 293 293 293 294 294 295 295 295 296 296 296 296 296 296 295 295 295 295 295 295 295 295 295 295 296 296 296 296 296 297 297 298 299 300 301 302 302 302 302 302 302 302 301 300 299 299 299 299 298 298 298 297 297 297 296 296 296 296 296 295 295 295
291 291 292 292 292 293 293 293 293 294 294 294 295 295 295 295 296 296 296 296 296 295 295 295 295 295 295 295 295 295 295 296 296 296 296 296 297 297 298 298 299 301 301 302 302 302 302 302 301 301 300 299 299 298 298 297 297 297 296 296 296 295 295 295 295 294 294 294 294
291 292 292 292 293 293 293 293 294 294 294 294 294 295 295 295 295 296 296 296 296 296 295 295 295 295 295 295 295 295 295 295 296 296 297 297 297 297 298 298 299 300 301 301 301 301 301 301 301 300 299 298 298 297 297 297 296 295 295 295 294 294 294 294 294 293 293 293 293
292 292 293 293 293 293 293 293 294 294 294 294 294 294 294 295 295 295 295 296 295 295 295 295 295 295 295 295 295 295 295 295 296 296 297 297 297 298 298 298 299 299 300 301 301 301 301 300 300 299 299 297 297 297 296 296 295 294 294 293 293 293 293 293 293 293 292 293 292
292 293 293 293 293 293 293 293 293 293 293 293 294 294 294 294 294 295 295 295 295 295 295 294 295 295 295 295 295 295 295 295 295 296 296 297 297 298 298 298 298 299 300 301 300 300 300 299 299 298 297 297 297 296 296 295 294 294 293 292 292 292 292 292 292 292 292 292 291
293 293 293 293 293 293 293 293 293 293 293 293 293 293 294 294 294 294 294 294 294 294 294 294 294 294 294 294 294 294 294 294 294 295 296 296 297 298 298 298 299 299 300 300 299 298 298 297 298 298 297 296 296 296 295 295 294 293 292 292 291 291 291 291 291 291 291 291 291
293 293 293 293 293 293 293 293 293 293 293 293 293 293 293 293 293 293 293 293 293 293 294 294 293 293 293 293 293 293 294 294 294 294 295 295 296 297 298 298 299 300 300 299 298 297 296 296 296 296 296 296 296 295 294 294 293 292 292 291 291 290 290 289 290 290 291 291 291
293 293 293 293 293 292 292 292 292 292 292 292 292 292 292 292 293 293 293 293 293 293 293 293 293 292 292 293 293 293 293 293 294 294 295 295 295 296 296 297 298 299 300 299 297 295 295 295 295 295 295 296 295 294 293 293 292 292 292 291 290 290 290 289 289 290 290 291 291
292 292 292 292 292 292 292 292 292 292 292 292 292 292 292 292 292 292 292 292 292 292 292 292 292 292 292 292 292 292 293 293 293 294 295 295 296 296 297 297 298 299 299 298 296 295 295 295 294 294 294 294 294 294 293 292 292 292 291 290 290 290 290 290 290 290 290 291 291
292 292 292 292 292 291 291 291 291 291 291 291 291 291 291 291 291 291 291 292 291 291 291 291 291 291 291 291 291 292 292 292 293 293 294 294 295 295 297 298 299 299 298 296 295 295 295 294 294 294 293 294 294 293 293 292 292 291 291 291 290 290 290 290 291 291 291 290 290
291 291 291 291 291 291 291 291 291 291 291 291 291 291 291 291 291 291 291 290 290 290 290 291 290 290 290 290 291 291 291 292 292 293 293 293 293 294 295 297 299 299 298 296 295 295 294 294 294 293 293 293 293 293 293 292 292 291 291 291 291 291 291 291 291 291 290 290 289
291 291 291 290 290 290 290 290 290 290 290 290 290 290 290 290 290 290 290 290 290 290 290 290 290 290 290 290 290 290 291 291 292 292 292 293 293 294 295 297 299 299 298 295 294 294 294 294 293 293 292 292 292 292 293 292 292 291 291 291 291 291 291 291 290 290 289 289 289
290 290 290 289 289 289 289 289 290 290 290 290 289 289 289 289 289 289 289 290 289 289 289 289 289 289 289 289 290 290 290 290 291 291 292 292 293 294 295 297 298 298 296 294 294 294 294 294 293 292 292 292 292 292 292 292 291 291 291 291 291 291 291 290 290 289 289 289 288
289 289 289 288 288 288 289 289 289 289 289 289 289 289 289 288 289 289 289 289 289 289 289 289 289 289 288 289 289 289 290 290 290 291 291 292 293 294 296 297 298 296 294 293 293 293 293 293 292 292 291 291 291 292 292 291 291 291 291 291 291 291 291 290 289 289 289 288 288
289 288 288 288 287 287 288 288 288 289 288 288 288 288 288 288 288 288 288 288 288 288 289 289 288 289 289 289 289 289 289 290 291 291 292 292 293 295 296 297 297 295 293 292 292 292 292 292 291 291 290 290 290 291 291 290 290 290 290 290 290 290 290 289 289 289 288 288 288
288 287 287 287 287 287 287 287 288 288 288 287 287 287 287 287 287 287 287 288 288 288 288 288 289 289 289 289 290 290 290 290 291 291 292 293 294 295 296 296 295 293 292 292 292 291 291 290 290 290 289 289 289 289 289 289 289 289 289 288 288 288 288 288 288 288 288 288 288
287 287 286 286 286 286 286 286 287 287 287 286 286 286 286 287 287 287 287 287 288 288 288 288 288 289 289 289 289 290 290 290 291 291 292 293 294 295 295 294 293 292 291 291 291 290 290 289 289 289 289 289 289 289 289 288 288 288 288 287 287 287 287 288 288 288 288 288 287
286 286 286 286 285 286 285 286 285 286 285 285 285 285 286 286 286 286 287 287 287 287 287 287 288 288 288 289 289 290 290 291 291 291 292 293 294 295 294 292 291 290 290 290 290 289 289 289 289 289 289 289 288 288 288 288 287 287 287 287 287 287 287 287 288 288 288 287 287
285 285 285 285 285 285 285 285 284 285 284 285 285 285 285 286 286 286 286 287 286 286 287 287 287 288 288 289 289 290 290 291 291 291 292 293 294 294 292 290 290 289 289 289 289 289 289 289 289 289 289 288 288 288 288 287 287 287 286 286 286 287 287 287 288 288 287 287 287
285 285 284 284 284 284 284 284 284 284 284 284 284 284 285 285 285 286 286 286 286 286 287 287 287 288 288 289 289 289 290 291 291 292 292 294 294 293 290 289 288 288 288 289 289 289 289 289 289 289 289 288 288 288 288 287 287 286 286 286 286 287 287 287 287 287 286 286 287
284 284 284 283 283 283 283 283 283 283 284 284 284 284 284 285 285 285 286 286 287 287 287 287 287 288 288 288 289 289 290 291 292 293 294 294 293 291 289 288 287 287 288 288 288 289 289 289 289 289 289 289 289 288 288 287 287 286 286 286 286 286 286 287 286 286 286 286 287
283 283 283 283 283 283 283 283 283 283 283 283 284 284 284 285 285 286 286 286 287 287 287 288 288 288 289 289 289 289 290 290 292 293 294 292 291 289 288 288 287 287 287 288 288 288 289 289 289 289 289 289 289 288 288 287 286 286 286 286 286 286 286 285 285 285 285 285 285
Wind_Speed
6 6 5 5 5 5 5 5 6 6 6 6 7 7 7 8 8 8 8 7 7 7 8 8 8 8 9 12 13 13 13 13 14 15 14 13 11 10 9 9 8 9 9 10 11 12 12 12 12 10 10 10 12 14 14 13 14 14 15 15 13 14 15 17 17 18 19 20 16
7 6 6 5 5 5 5 5 6 6 6 6 7 7 8 8 8 8 9 9 8 8 8 8 8 9 11 13 13 13 13 13 14 15 15 14 13 11 10 9 9 9 10 11 11 11 11 12 12 11 9 9 11 13 14 14 14 15 16 17 15 13 13 14 15 17 18 19 17
6 6 6 6 6 6 6 6 7 8 8 8 7 7 7 8 8 8 8 9 9 9 9 9 9 10 11 13 13 13 13 13 14 15 15 14 14 13 12 11 10 10 11 11 11 11 12 13 12 11 10 9 10 11 12 13 14 15 16 17 14 12 10 10 12 13 13 13 15
6 6 6 7 8 9 8 7 8 9 9 8 7 7 7 7 7 7 8 9 10 10 10 9 9 9 10 12 13 14 14 14 15 16 16 15 15 15 14 13 12 12 12 12 12 13 14 14 12 10 10 11 12 12 11 10 13 14 14 14 12 11 10 9 9 9 8 9 11
6 6 6 7 9 9 9 8 9 9 8 7 7 7 7 7 7 7 8 8 9 10 11 11 10 10 11 12 15 16 16 16 16 15 15 15 15 14 13 13 13 12 12 11 12 13 14 14 12 10 11 12 11 11 11 11 13 13 13 11 10 9 9 9 9 8 7 6 6
6 7 7 7 9 9 9 9 10 10 9 7 8 9 9 8 8 9 10 10 11 12 14 14 12 12 12 14 16 17 17 16 15 15 15 15 14 14 13 13 13 12 12 12 12 13 14 14 11 11 11 11 11 12 12 12 13 13 13 12 11 9 8 9 9 8 8 8 7
9 9 10 10 10 10 10 10 10 9 9 8 10 11 11 10 10 11 12 12 12 12 12 11 11 12 13 14 15 16 16 16 16 16 16 15 15 14 14 13 13 13 13 13 13 13 13 13 11 11 10 10 10 12 13 13 12 12 12 12 10 8 8 10 8 8 10 12 12
11 12 12 12 12 12 12 12 11 10 10 9 10 11 12 12 12 13 13 12 11 11 10 9 11 13 14 15 15 15 16 17 17 17 16 15 16 16 15 14 14 14 13 12 11 12 12 11 11 10 10 9 9 10 12 14 14 13 13 12 8 7 8 9 9 9 10 13 14
11 12 13 13 13 13 13 13 13 12 12 11 12 12 13 13 12 12 11 11 10 10 10 10 13 14 16 16 16 16 17 17 18 18 17 16 17 18 18 17 16 14 12 11 11 12 12 11 10 10 10 9 8 9 11 13 15 15 14 11 8 8 8 8 9 9 10 12 13
13 13 14 14 14 14 14 14 13 13 14 14 14 14 13 13 12 11 10 9 9 9 10 11 13 14 15 16 16 17 17 17 17 18 18 18 19 20 19 18 16 14 12 10 10 10 11 10 10 11 11 9 9 10 11 12 15 16 14 9 8 9 10 8 8 9 10 11 12
15 15 14 14 14 15 15 14 13 13 13 14 14 14 14 13 12 11 10 9 10 11 12 12 14 15 16 15 16 16 17 17 18 18 19 19 20 20 20 18 16 14 13 12 10 9 8 9 11 12 12 11 10 10 10 11 14 16 14 9 10 11 11 10 9 10 11 12 14
15 15 15 15 15 15 15 15 13 13 14 14 15 14 14 13 13 12 11 11 12 12 13 13 15 16 16 15 16 17 17 18 20 20 21 21 21 21 21 19 17 16 15 14 11 9 8 9 11 13 14 13 11 9 9 11 13 14 14 11 12 13 13 13 12 12 12 14 16
15 16 15 15 16 16 15 15 13 13 13 14 14 14 13 13 13 13 12 12 12 12 12 13 15 15 16 16 16 17 18 19 20 21 21 22 22 22 22 21 19 17 15 14 11 10 10 11 13 15 15 15 12 10 10 11 12 12 13 13 14 14 14 15 15 15 15 17 17
16 16 16 16 16 15 15 14 13 12 13 14 14 14 13 13 13 12 12 12 12 12 13 13 14 14 15 16 17 18 19 20 21 22 23 23 23 22 22 21 19 17 15 12 12 12 12 13 14 15 16 16 14 12 12 11 12 12 12 14 15 16 16 16 16 17 18 19 19
16 17 17 17 16 15 14 14 12 12 13 14 14 14 13 12 12 11 11 11 12 12 12 13 13 14 15 17 18 20 20 21 22 23 23 24 24 23 22 21 20 18 16 14 13 12 13 14 15 16 16 16 15 14 13 12 12 12 12 14 15 16 17 17 17 18 19 21 21
17 17 17 17 17 16 15 14 12 12 13 14 14 14 13 13 12 11 11 11 11 11 11 13 14 14 15 17 18 19 20 21 21 22 23 23 23 23 23 22 21 20 18 17 15 14 13 14 15 16 16 16 15 14 14 13 12 12 12 13 14 16 17 18 18 18 19 20 21
17 18 18 18 17 17 16 15 13 12 13 14 15 15 14 13 12 12 11 11 11 11 12 13 14 14 15 17 17 18 18 19 20 20 21 22 23 23 23 23 22 21 20 19 17 16 15 15 15 15 16 16 15 14 14 14 13 12 12 12 13 14 16 18 19 19 19 20 21
18 18 18 18 18 18 17 16 15 15 15 15 15 15 14 14 14 13 13 13 13 13 13 14 14 15 16 18 17 17 17 18 19 20 21 22 23 23 24 24 23 22 21 20 18 17 16 16 16 15 15 15 14 14 14 14 13 12 12 12 12 13 14 16 17 18 19 19 20
18 19 19 19 18 18 18 17 16 16 16 16 15 15 15 16 15 15 15 14 15 15 15 15 15 16 17 18 18 17 17 18 20 22 22 23 23 23 24 24 23 22 21 20 19 18 17 16 16 15 15 14 14 14 14 14 13 12 12 12 12 12 12 13 15 16 17 18 19
19 19 19 18 18 18 18 17 17 17 16 16 16 16 17 17 17 17 17 17 16 16 16 16 16 16 18 19 19 19 18 17 19 21 22 22 23 23 23 24 23 22 21 20 19 18 17 17 16 15 15 14 14 14 14 13 13 12 12 11 11 12 12 12 13 14 15 16 17
19 19 19 18 18 18 18 18 17 17 17 17 17 17 17 17 17 17 18 18 18 17 17 17 17 18 18 19 20 20 19 18 19 20 21 22 23 23 23 23 22 21 19 18 18 18 18 17 16 15 15 14 14 14 14 13 13 13 12 11 11 12 12 12 12 13 14 15 15
19 19 19 18 18 18 18 18 18 18 18 17 17 17 17 16 17 17 17 18 18 18 18 19 18 18 18 18 20 20 20 19 19 19 20 20 21 22 22 22 21 20 19 18 18 18 18 17 16 15 14 14 14 14 14 13 13 13 13 12 12 12 12 12 12 13 14 14 15
19 19 18 18 18 19 19 19 19 18 18 18 17 17 17 17 17 17 17 17 17 18 19 19 18 18 18 18 19 20 20 20 21 21 21 21 22 22 22 21 21 21 20 18 17 17 16 16 15 14 14 14 14 14 14 14 13 13 13 13 13 13 13 13 13 13 14 14 14
19 18 17 16 18 19 20 20 19 19 19 19 18 17 17 17 17 17 17 17 18 18 18 17 17 17 18 19 19 20 21 22 22 23 23 23 22 22 22 21 21 20 19 16 16 15 15 13 13 13 14 13 14 14 14 14 13 13 14 14 14 14 14 14 14 14 15 15 14
19 19 18 18 19 19 20 20 20 20 20 20 19 18 17 17 17 17 17 17 18 18 18 18 18 18 18 18 19 20 20 22 23 23 24 24 23 22 21 19 18 17 16 14 16 18 17 15 13 12 13 13 13 13 13 13 13 14 14 15 15 15 15 16 16 16 16 16 14
19 19 19 19 19 20 20 21 21 21 21 21 21 20 19 18 17 17 17 18 18 18 18 19 19 18 17 17 18 19 20 20 21 22 23 23 23 23 21 19 17 15 14 15 17 19 20 20 17 15 13 13 13 13 13 12 13 14 15 16 16 16 16 17 17 17 16 16 15
18 18 19 19 19 20 21 21 21 21 22 22 21 21 20 19 18 17 18 18 18 18 18 18 18 17 16 16 18 19 20 19 20 21 22 23 23 23 22 20 17 15 14 16 18 20 22 22 21 19 16 14 14 14 13 13 14 15 15 16 16 16 17 17 17 17 17 16 16
18 18 18 19 20 20 21 21 21 22 22 22 22 21 21 21 20 19 19 18 18 18 18 17 16 15 14 13 16 18 19 20 20 20 20 21 22 22 22 20 18 17 17 18 19 22 23 24 23 21 19 15 14 14 14 14 15 15 14 14 15 16 17 17 17 17 18 17 17
18 18 18 19 19 20 20 21 21 21 21 21 21 21 21 21 21 20 20 19 19 18 17 15 13 12 12 14 16 18 20 21 20 20 20 21 22 23 23 22 21 20 20 21 22 24 25 25 24 23 21 17 13 12 12 13 14 14 13 13 13 15 15 16 16 16 17 18 17
18 18 18 18 19 19 20 20 20 20 20 19 20 21 21 21 21 21 21 20 20 19 17 15 14 14 16 17 18 18 19 20 19 20 20 22 23 23 24 23 22 21 21 22 23 25 26 26 25 23 21 19 14 12 11 12 12 12 12 12 13 15 16 16 17 17 17 17 18
18 18 17 18 18 19 19 20 20 20 20 19 20 21 21 21 22 22 22 21 20 19 18 18 18 19 20 19 19 19 20 20 20 20 20 22 23 24 25 26 25 23 20 21 23 25 26 26 25 23 21 19 15 12 11 11 12 11 11 12 14 16 17 16 17 18 18 19 19
19 18 18 18 18 18 19 20 20 20 21 21 22 22 22 23 23 22 22 21 20 20 20 20 20 21 21 21 20 21 21 21 21 21 21 21 23 25 26 25 23 19 15 17 21 23 24 24 23 23 21 18 14 12 12 11 11 11 11 13 15 17 17 15 16 18 20 21 20
18 19 19 19 19 19 19 20 20 20 21 21 22 22 23 23 23 23 22 21 20 20 20 20 21 21 21 21 21 22 22 22 22 22 22 22 24 25 25 22 17 11 9 16 18 20 21 22 22 21 19 16 13 12 11 11 10 9 10 12 14 16 16 16 17 18 20 21 19
17 18 19 19 20 20 20 19 19 19 20 20 21 22 22 23 23 23 22 21 20 19 19 20 20 20 20 20 20 21 21 20 20 21 22 23 24 24 22 16 8 6 11 17 18 19 20 21 21 20 18 15 11 10 10 10 9 9 10 11 12 13 14 15 17 18 19 20 18
17 18 19 20 20 20 20 20 19 19 20 20 21 21 22 23 23 23 22 21 20 20 20 19 19 19 19 19 20 21 21 21 21 21 22 23 23 22 18 12 6 9 15 20 20 21 22 22 21 20 17 13 10 9 10 10 10 10 11 12 12 12 13 14 15 17 18 18 18
18 18 18 19 20 21 21 21 20 21 21 21 21 22 22 23 22 22 21 21 21 21 20 20 19 19 19 19 19 20 20 21 21 21 22 23 23 19 14 9 8 13 19 22 23 24 24 23 22 20 16 12 10 9 10 10 10 11 12 12 11 12 12 13 14 15 16 16 17
19 18 18 19 20 21 22 22 22 22 22 22 22 22 22 23 23 22 20 20 20 20 20 20 19 19 19 20 20 19 20 20 21 22 23 24 21 16 11 9 12 16 21 24 25 26 25 24 22 19 16 12 11 10 10 9 9 10 11 12 11 11 11 11 12 14 15 16 17
20 20 20 20 21 22 23 23 22 22 22 23 23 23 22 22 22 21 20 18 19 19 20 20 20 20 20 20 20 21 21 21 21 22 24 25 19 12 11 13 14 17 20 25 27 27 26 25 22 19 16 13 12 11 11 10 10 10 10 10 10 11 11 10 11 12 14 17 18
22 22 22 22 23 23 23 24 23 23 23 23 24 24 23 22 21 20 19 18 18 19 20 20 21 21 20 20 20 20 21 22 22 24 24 22 13 11 14 15 16 17 20 25 27 28 27 25 22 20 17 14 13 12 11 10 11 11 10 10 10 11 11 11 11 11 13 17 20
22 22 23 23 23 23 24 24 24 24 23 23 24 24 24 22 21 20 19 18 18 18 19 20 21 21 20 19 19 20 21 22 22 22 20 13 10 14 17 17 17 18 20 25 28 28 26 25 22 20 17 14 13 11 11 11 11 11 11 10 10 11 11 11 11 11 13 15 18
22 22 23 24 24 24 24 25 25 25 24 24 25 24 23 21 20 19 18 17 18 18 17 18 20 21 21 19 18 18 20 21 21 17 10 8 13 17 18 17 17 18 20 24 27 27 26 24 23 21 18 14 13 12 11 11 12 12 13 12 12 11 11 12 11 11 12 14 14
Wind_Direction
302 300 299 301 301 300 299 296 294 293 294 295 296 298 299 299 298 298 296 295 292 291 290 289 289 290 292 293 294 295 296 297 298 299 300 300 296 293 291 292 293 293 292 291 290 289 287 283 280 275 267 258 255 254 253 253 250 245 239 235 235 237 239 240 236 230 225 221 217
298 297 297 298 296 296 295 295 296 296 297 298 298 299 300 299 298 297 296 295 293 292 290 288 286 286 287 288 289 290 290 290 292 294 295 297 296 295 294 292 291 290 290 290 290 288 286 285 283 280 274 264 257 253 251 249 249 247 244 240 239 237 237 238 238 235 230 225 220
296 296 297 297 297 297 297 297 297 298 298 298 298 298 298 297 295 294 292 291 291 291 290 289 287 285 285 285 285 285 285 286 287 288 289 290 291 291 290 288 287 286 286 286 286 284 283 283 281 279 276 272 262 255 250 247 246 246 246 244 242 239 236 236 237 237 234 230 223
297 299 300 299 298 297 296 295 295 295 296 296 296 296 295 294 293 291 291 290 290 290 289 289 289 288 287 287 285 284 283 283 284 284 285 285 285 285 286 285 285 284 283 282 282 281 281 280 278 276 274 273 269 263 256 248 243 243 244 245 243 239 235 230 230 231 233 234 229
304 305 304 301 299 297 295 293 293 293 294 294 294 294 293 293 292 292 292 293 293 293 292 292 292 291 291 290 288 286 285 283 282 282 282 282 282 282 282 282 281 280 280 279 279 280 279 278 276 273 271 271 269 265 259 253 246 243 243 243 242 237 230 224 223 223 226 232 235
309 308 306 302 300 298 296 294 293 292 292 291 291 291 291 291 292 294 295 295 295 296 295 295 293 292 290 290 289 288 287 285 282 280 279 280 280 280 279 278 277 276 275 275 275 276 276 276 273 270 268 268 267 263 259 253 248 244 242 242 241 237 229 222 216 214 213 212 213
311 310 308 305 303 301 298 296 294 293 292 290 289 289 290 290 291 292 293 294 295 296 296 295 294 293 292 291 290 289 288 287 284 281 278 277 277 277 277 276 274 273 271 270 270 271 272 271 269 267 265 263 263 260 256 250 246 242 239 237 235 230 223 221 214 207 200 196 194
311 309 307 305 303 301 299 297 296 294 293 291 289 288 288 288 288 290 291 293 293 294 295 295 295 295 295 294 292 291 289 287 285 281 278 274 274 274 273 273 272 270 267 266 265 266 266 266 264 263 261 259 258 255 252 247 243 239 234 228 223 221 220 219 210 203 197 193 188
309 307 305 303 301 300 298 297 296 295 294 291 289 288 287 287 287 289 290 292 292 294 296 296 297 297 296 295 294 292 290 288 285 281 277 273 271 271 271 272 271 269 267 265 264 263 263 262 260 258 257 254 253 251 248 243 240 237 232 221 209 205 207 210 201 194 189 186 179
307 305 303 301 300 299 298 298 296 295 294 292 290 289 288 287 287 288 289 291 293 295 296 297 298 298 296 295 294 293 291 289 286 283 279 275 272 270 270 270 269 269 268 266 264 262 261 259 256 254 252 248 248 248 246 242 239 235 230 218 198 192 192 194 186 178 171 165 157
304 303 301 299 299 298 298 298 297 296 294 293 292 291 289 288 288 288 290 292 295 296 297 298 299 299 298 297 295 294 292 291 289 287 285 281 277 274 272 269 268 268 268 269 266 262 257 254 251 249 246 241 241 242 243 242 239 233 225 212 193 183 178 174 169 162 155 148 141
303 301 299 298 298 298 298 297 297 296 295 293 292 292 291 289 289 290 291 294 295 297 298 300 300 300 299 298 297 295 294 293 292 291 290 289 286 283 279 274 270 268 268 268 266 261 254 250 248 246 243 238 235 234 236 238 237 229 217 202 188 178 170 165 161 156 150 145 141
301 300 299 298 298 298 297 297 296 295 294 294 293 292 291 290 290 291 293 294 296 297 299 300 300 299 298 298 297 297 296 295 294 294 293 293 292 290 287 283 277 273 269 267 264 259 253 248 245 243 240 235 231 228 227 229 230 223 210 195 185 176 168 163 160 155 151 149 147
300 299 298 298 298 297 297 297 296 295 294 294 293 293 292 292 292 292 293 294 295 297 298 299 298 298 298 298 298 298 297 296 295 294 292 292 292 292 291 288 284 279 273 267 263 258 253 249 243 240 237 233 228 223 220 220 221 216 206 194 184 175 168 164 160 156 154 153 151
299 298 298 298 297 297 296 296 295 295 295 294 294 294 294 293 293 292 292 292 294 295 296 297 296 296 297 297 297 297 296 295 294 292 291 290 290 290 290 288 285 281 275 269 263 257 253 249 244 239 235 231 225 220 216 214 214 211 205 197 186 176 168 163 162 159 157 155 153
298 297 297 297 297 296 296 296 295 295 295 295 295 295 295 294 293 292 291 291 292 293 293 293 293 294 295 295 294 294 294 293 291 290 289 287 287 287 287 286 284 280 276 270 264 258 252 248 243 238 233 228 223 217 212 209 208 207 205 200 189 178 170 164 163 162 160 157 155
297 297 296 296 296 295 295 295 295 295 295 296 296 296 295 295 293 292 290 289 290 290 290 290 291 291 291 291 291 291 291 290 288 287 286 285 285 285 285 284 282 279 275 270 264 258 252 247 241 236 230 225 219 213 208 204 203 202 201 199 191 181 173 166 163 162 161 159 157
297 296 296 295 295 295 295 296 296 296 296 297 297 297 296 294 293 292 290 289 289 288 288 288 288 288 288 288 288 287 287 286 285 284 283 282 282 282 281 281 280 278 274 269 263 257 251 246 240 233 227 222 216 210 205 200 198 196 195 193 188 182 175 169 164 162 160 159 158
297 296 295 295 295 295 296 297 297 298 298 298 297 296 295 294 293 292 291 289 289 288 287 287 286 285 285 284 284 283 283 282 282 281 280 279 279 278 278 277 277 276 274 269 263 256 249 243 237 230 223 217 211 206 201 197 194 191 189 187 183 179 175 170 165 161 158 157 155
296 296 295 295 296 297 298 299 299 299 299 298 297 295 294 293 293 292 291 290 289 288 287 285 284 283 282 282 282 281 280 279 279 278 277 276 275 275 275 275 275 274 272 268 261 254 247 241 234 226 218 212 206 201 197 193 189 187 184 182 179 175 172 168 163 159 156 154 153
296 296 296 296 297 298 299 300 300 299 298 296 294 293 292 292 292 291 290 289 288 287 285 283 282 281 281 281 281 280 280 279 277 276 275 274 273 273 273 273 273 272 269 266 261 255 248 241 232 222 214 207 202 197 192 187 184 181 178 176 174 171 168 163 159 155 153 152 150
297 297 297 298 299 300 300 300 299 297 295 293 292 291 290 290 290 289 288 287 286 285 284 282 282 281 280 280 280 280 281 280 278 276 274 272 271 270 270 269 269 268 266 264 260 255 250 242 231 219 209 202 197 192 187 182 178 175 172 169 167 165 163 158 154 152 149 148 146
298 299 299 299 299 299 299 298 296 295 293 292 290 290 290 289 288 288 287 286 285 284 283 283 282 281 281 280 280 281 281 280 279 276 274 271 269 268 267 266 265 264 263 261 258 253 248 240 227 213 202 196 193 188 183 177 173 169 166 163 161 159 157 153 150 147 145 142 140
299 299 299 298 298 297 297 296 295 294 293 292 291 290 290 289 289 288 287 286 285 284 284 284 283 282 282 281 280 280 280 279 278 277 275 272 269 267 265 263 262 260 259 257 252 246 239 231 218 205 195 191 188 184 179 174 170 166 162 160 157 155 153 151 148 144 141 138 136
298 297 297 296 296 296 296 295 295 294 294 293 293 292 291 290 289 289 287 286 285 285 284 284 284 283 283 282 281 279 278 277 277 276 275 274 271 268 266 263 261 258 255 252 245 236 227 217 206 196 188 185 183 179 174 170 167 164 161 159 156 153 151 149 147 144 141 138 136
295 295 294 295 295 295 295 295 295 294 294 294 293 293 292 291 290 288 287 286 285 285 285 285 285 284 283 281 280 279 277 276 275 274 274 274 273 271 268 265 262 259 254 250 238 225 214 203 195 187 181 179 176 172 169 167 166 163 161 159 156 153 150 148 146 144 142 140 137
294 294 294 295 296 296 296 296 295 295 295 295 294 293 292 292 290 288 287 286 285 285 285 284 284 283 282 280 278 277 276 275 273 273 273 272 272 270 268 265 261 258 253 246 231 215 202 193 186 180 176 174 171 168 166 164 164 163 163 162 160 156 153 150 148 145 143 140 137
296 296 297 297 297 297 296 296 296 296 296 295 295 294 293 292 290 288 286 285 285 285 285 284 283 282 281 279 277 276 276 275 275 274 274 273 273 271 268 264 259 255 248 240 222 206 194 186 180 176 173 169 167 165 164 163 164 165 165 166 163 160 156 152 148 145 142 139 136
299 299 300 300 299 298 298 298 297 297 296 296 295 294 292 291 289 288 286 285 285 285 285 284 283 282 279 277 277 277 277 276 276 275 275 274 274 273 271 268 262 254 245 234 215 200 189 182 176 172 169 165 163 162 163 163 163 165 166 167 165 162 158 154 149 146 143 139 137
302 302 302 301 301 300 299 299 298 298 297 296 295 294 292 291 289 288 287 287 286 285 284 284 283 281 278 277 278 278 277 276 275 274 273 273 273 273 272 270 265 257 245 228 208 194 184 178 172 168 164 161 158 158 160 163 163 163 165 166 164 162 160 155 150 147 143 139 137
304 304 303 303 302 302 301 300 299 298 298 296 295 294 293 291 290 289 288 287 286 285 284 283 282 280 278 278 277 277 276 275 274 273 273 273 273 273 272 270 265 257 242 218 198 187 179 173 167 162 158 156 155 156 158 160 160 161 162 164 163 162 159 155 151 146 143 140 138
306 306 305 305 303 302 302 301 300 299 298 297 296 294 292 291 290 289 288 287 287 286 285 283 282 280 279 278 277 276 275 275 274 273 273 273 273 274 272 269 262 251 229 197 185 178 172 165 159 154 151 150 150 152 154 153 155 156 157 159 159 159 157 153 149 145 142 140 139
308 308 307 306 304 303 302 302 301 300 298 297 295 293 292 291 290 289 288 287 286 285 284 283 281 280 279 279 277 276 275 274 273 272 272 272 273 273 271 265 255 236 192 170 167 163 158 152 146 142 140 140 141 144 145 144 145 147 149 153 154 154 152 149 146 143 142 141 140
310 309 308 307 305 304 303 302 301 299 297 295 293 292 291 291 290 290 289 288 286 285 283 281 280 279 278 277 275 275 274 273 272 272 272 272 273 271 266 255 240 182 151 149 148 145 141 136 132 129 127 126 127 129 130 130 132 135 138 142 145 146 145 143 141 140 140 139 137
311 310 309 308 306 305 303 302 300 299 297 295 293 292 291 291 290 289 288 288 286 284 282 280 279 278 276 275 273 272 272 272 272 271 272 273 273 268 258 237 200 150 141 139 136 133 130 126 123 120 118 116 116 117 119 120 122 125 129 132 134 135 136 136 137 137 137 136 134
312 311 309 308 306 305 303 302 301 299 297 295 294 293 292 291 290 289 288 287 286 284 283 281 280 278 276 274 273 272 271 271 271 272 273 274 271 262 244 207 165 145 140 136 133 130 128 124 122 120 118 116 115 115 115 115 117 120 123 124 126 129 132 134 136 136 136 134 133
312 311 310 308 307 305 304 303 301 299 297 295 294 293 292 291 290 289 288 287 286 285 284 282 281 279 276 275 274 273 272 271 271 273 274 275 267 251 217 170 153 145 141 137 134 132 130 128 126 125 123 120 119 117 116 114 116 118 120 122 125 128 132 135 137 137 137 135 135
312 312 311 309 307 306 304 302 300 298 297 296 294 293 292 291 290 289 288 287 286 285 284 283 281 278 276 275 275 274 273 271 271 273 273 272 258 228 178 153 150 146 143 139 137 135 134 133 132 130 128 124 123 121 119 118 119 121 122 124 127 132 137 139 140 139 137 136 136
313 312 311 308 306 304 303 301 299 298 296 296 295 294 293 292 290 289 288 286 284 283 283 282 279 277 276 275 275 274 273 272 272 272 271 265 238 186 155 149 149 148 145 142 140 138 137 137 136 134 130 126 125 124 123 123 124 125 127 129 133 139 143 145 143 139 136 135 135
313 311 309 307 305 303 302 300 299 298 297 296 295 294 293 291 289 288 287 285 283 281 280 279 278 277 276 275 273 272 272 272 273 272 266 247 187 156 147 147 148 147 146 145 142 141 140 140 139 136 132 127 127 127 126 127 129 131 134 137 142 146 148 147 142 137 134 133 133
311 310 308 306 304 303 301 300 299 298 297 295 294 293 291 290 288 287 285 283 281 279 278 276 276 276 275 274 273 272 272 273 272 268 250 176 149 145 145 145 146 147 147 146 145 144 143 142 141 138 135 130 130 130 131 132 134 137 141 146 149 149 147 143 137 133 132 132 131